Wisconsin Rapids, WI

4:21 AM CDT on May 30, 2017 (GMT -0500)
Alexander Field South Wood County

Weather History for KISW - November, 2012

Change the Weather History Date:

Saturday, November 10, 2012

  Actual Average Record
Temperature  
Mean Temperature 52 °F -  
Max Temperature 64 °F 42 °F 64 °F (2012)
Min Temperature 39 °F 26 °F 5 °F (1979)
Degree Days  
Heating Degree Days 14    
Growing Degree Days 2 (Base 50)    
Moisture  
Dew Point 45 °F    
Average Humidity 81    
Maximum Humidity 93    
Minimum Humidity 60    
Precipitation  
Precipitation 0.02 in - - ()
Sea Level Pressure  
Sea Level Pressure 29.84 in    
Wind  
Wind Speed 11 mph (ESE)    
Max Wind Speed 15 mph    
Max Gust Speed 21 mph    
Visibility 7 miles    
Events Rain    
Averages and records for this station are not official NWS values.
T = Trace of Precipitation, MM = Missing Value Source: NWS Daily Summary

Daily Weather History Graph

Daily Weather History Graph

Search for Another Location

Airport or City:

Trip Planner

Search our weather history database for the weather conditions in past years. The results will help you decide how hot, cold, wet, or windy it might be!

Date:

Astronomy

Nov. 10, 2012 Rise Set
Actual Time 6:49 AM CST 4:36 PM CST
Civil Twilight 6:18 AM CST 5:07 PM CST
Nautical Twilight 5:43 AM CST 5:42 PM CST
Astronomical Twilight 5:09 AM CST 6:16 PM CST
Moon 2:46 AM CST (11/10) 2:30 PM CST (11/10)
Length of Visible Light 10h 49m
Length of Day
9h 47m
Waning Crescent, 14% of the Moon is Illuminated
Nov 10
Waning Crescent
Nov 13
New
Nov 20
First Quarter
Nov 28
Full
Dec 6
Last Quarter

Hourly Weather History & Observations

Time (CST) Temp. Windchill Dew Point Humidity Pressure Visibility Wind Dir Wind Speed Gust Speed Precip Events Conditions
12:54 AM 42.1 °F 34.5 °F 37.9 °F 85% 30.07 in 10.0 mi East 15.0 mph 19.6 mph 0.00 in Rain Light Rain
1:54 AM 39.9 °F 32.5 °F 37.9 °F 93% 30.04 in 10.0 mi East 12.7 mph 20.7 mph 0.02 in   Overcast
2:54 AM 39.9 °F 33.9 °F 37.0 °F 89% 30.04 in 9.0 mi East 9.2 mph 19.6 mph N/A   Overcast
3:54 AM 39.9 °F 32.5 °F 37.0 °F 89% 30.01 in 8.0 mi East 12.7 mph 19.6 mph N/A   Overcast
4:54 AM 39.9 °F 33.4 °F 37.9 °F 93% 30.01 in 8.0 mi East 10.4 mph - 0.00 in   Overcast
5:54 AM 41.0 °F 33.9 °F 37.9 °F 89% 29.97 in 7.0 mi East 12.7 mph 19.6 mph 0.00 in   Overcast
6:54 AM 41.0 °F 35.2 °F 39.0 °F 93% 29.97 in 7.0 mi East 9.2 mph - N/A   Overcast
7:54 AM 42.1 °F 35.7 °F 39.0 °F 89% 29.93 in 4.0 mi East 11.5 mph 20.7 mph N/A   Overcast
8:54 AM 44.1 °F 39.5 °F 41.0 °F 89% 29.92 in 3.0 mi East 8.1 mph - N/A   Overcast
9:54 AM 45.0 °F 39.7 °F 42.1 °F 90% 29.88 in 3.0 mi ESE 10.4 mph - N/A   Overcast
10:21 AM 46.4 °F 41.5 °F 42.8 °F 87% 29.86 in 2.5 mi ESE 10.4 mph - N/A   Overcast
10:28 AM 46.4 °F 41.9 °F 42.8 °F 87% 29.86 in 3.0 mi ESE 9.2 mph - N/A   Overcast
10:54 AM 46.9 °F - 44.1 °F 90% 29.87 in 3.0 mi ESE 11.5 mph - N/A   Overcast
11:26 AM 48.2 °F - 44.6 °F 87% 29.82 in 3.0 mi ESE 9.2 mph - N/A   Overcast
11:54 AM 50.0 °F - 45.0 °F 83% 29.81 in 4.0 mi ESE 11.5 mph - N/A   Haze
12:12 PM 51.8 °F - 46.4 °F 82% 29.78 in 4.0 mi ESE 10.4 mph - N/A   Haze
12:23 PM 51.8 °F - 46.4 °F 82% 29.77 in 4.0 mi ESE 10.4 mph 17.3 mph N/A   Haze
12:54 PM 54.0 °F - 46.9 °F 77% 29.78 in 5.0 mi SE 12.7 mph 16.1 mph N/A   Haze
1:45 PM 57.2 °F - 48.2 °F 72% 29.73 in 6.0 mi SE 10.4 mph 16.1 mph N/A   Haze
1:54 PM 59.0 °F - 50.0 °F 72% 29.74 in 7.0 mi SE 10.4 mph 17.3 mph N/A   Overcast
2:54 PM 61.0 °F - 50.0 °F 67% 29.73 in 9.0 mi SE 6.9 mph - N/A   Clear
3:54 PM 61.0 °F - 51.1 °F 70% 29.74 in 10.0 mi SE 4.6 mph - N/A   Clear
4:54 PM 59.0 °F - 51.1 °F 75% 29.75 in 10.0 mi SSE 4.6 mph - N/A   Clear
5:54 PM 59.0 °F - 51.1 °F 75% 29.73 in 10.0 mi ESE 6.9 mph - N/A   Clear
6:54 PM 57.9 °F - 51.1 °F 78% 29.72 in 10.0 mi SE 5.8 mph - N/A   Clear
7:54 PM 59.0 °F - 51.1 °F 75% 29.72 in 10.0 mi SE 3.5 mph - N/A   Clear
8:54 PM 62.1 °F - 52.0 °F 70% 29.71 in 10.0 mi South 9.2 mph - 0.00 in   Scattered Clouds
10:54 PM 64.0 °F - 52.0 °F 65% 29.70 in 10.0 mi South 9.2 mph - 0.00 in   Partly Cloudy
11:54 PM 64.0 °F - 50.0 °F 60% 29.70 in 10.0 mi South 8.1 mph - 0.00 in   Partly Cloudy